TimeCDT,TemperatureF,Dew PointF,Humidity,Sea Level PressureIn,VisibilityMPH,Wind Direction,Wind SpeedMPH,Gust SpeedMPH,PrecipitationIn,Events,Conditions,WindDirDegrees,DateUTC
12:56 AM,73.9,70.0,87,30.05,10.0,Calm,Calm,-,N/A,,Clear,0,2013-09-17 05:56:00
1:56 AM,73.9,70.0,87,30.04,10.0,Calm,Calm,-,0.01,,Clear,0,2013-09-17 06:56:00
2:56 AM,73.9,70.0,87,30.04,10.0,Calm,Calm,-,N/A,,Clear,0,2013-09-17 07:56:00
3:56 AM,73.0,69.1,87,30.03,10.0,Calm,Calm,-,N/A,,Clear,0,2013-09-17 08:56:00
4:56 AM,73.0,68.0,84,30.03,10.0,NNE,5.8,-,N/A,,Clear,20,2013-09-17 09:56:00
5:56 AM,73.0,69.1,87,30.04,7.0,NNE,6.9,-,N/A,,Scattered Clouds,30,2013-09-17 10:56:00
6:56 AM,72.0,68.0,87,30.07,5.0,NE,6.9,-,N/A,,Scattered Clouds,40,2013-09-17 11:56:00
7:56 AM,75.0,68.0,79,30.07,10.0,NE,8.1,-,N/A,,Scattered Clouds,50,2013-09-17 12:56:00
8:56 AM,80.1,68.0,67,30.07,10.0,NE,8.1,-,N/A,,Scattered Clouds,50,2013-09-17 13:56:00
9:56 AM,84.9,68.0,57,30.09,10.0,East,11.5,-,N/A,,Scattered Clouds,90,2013-09-17 14:56:00
10:56 AM,88.0,70.0,55,30.09,10.0,East,9.2,-,N/A,,Partly Cloudy,80,2013-09-17 15:56:00
11:56 AM,90.0,70.0,52,30.07,10.0,ENE,9.2,-,N/A,,Partly Cloudy,60,2013-09-17 16:56:00
12:56 PM,90.0,70.0,52,30.06,10.0,ENE,5.8,-,N/A,,Scattered Clouds,60,2013-09-17 17:56:00
1:56 PM,89.1,69.1,52,30.03,10.0,NE,8.1,-,N/A,,Mostly Cloudy,40,2013-09-17 18:56:00
2:56 PM,91.0,70.0,50,30.00,10.0,East,4.6,-,N/A,,Scattered Clouds,90,2013-09-17 19:56:00
3:56 PM,91.0,70.0,50,29.99,10.0,ENE,5.8,-,N/A,,Mostly Cloudy,60,2013-09-17 20:56:00
4:56 PM,86.0,70.0,59,29.99,10.0,SE,6.9,-,N/A,,Scattered Clouds,130,2013-09-17 21:56:00
5:56 PM,84.0,73.0,69,29.99,10.0,South,4.6,-,N/A,,Mostly Cloudy,170,2013-09-17 22:56:00
6:56 PM,81.0,73.0,77,29.99,10.0,SE,3.5,-,N/A,,Scattered Clouds,130,2013-09-17 23:56:00
7:56 PM,79.0,73.0,82,30.01,10.0,Calm,Calm,-,N/A,,Scattered Clouds,0,2013-09-18 00:56:00
8:56 PM,79.0,73.0,82,30.02,10.0,SE,5.8,-,N/A,,Mostly Cloudy,130,2013-09-18 01:56:00
9:56 PM,79.0,72.0,79,30.04,10.0,East,3.5,-,N/A,,Mostly Cloudy,80,2013-09-18 02:56:00
10:56 PM,78.1,71.1,79,30.05,10.0,NNE,11.5,-,N/A,,Scattered Clouds,30,2013-09-18 03:56:00
11:56 PM,77.0,71.1,82,30.05,10.0,NNE,9.2,-,N/A,,Mostly Cloudy,30,2013-09-18 04:56:00